Lemoore (Abandoned) Willett A, CO

7:13 AM MDT on May 30, 2017 (GMT -0600)
Lemoore (Abandoned) Willett A

Weather History for KLMO - March, 2014

Change the Weather History Date:

Friday, March 28, 2014

  Actual Average (KBJC) Record (KBJC)
Temperature  
Mean Temperature 46 °F -  
Max Temperature 57 °F 53 °F 76 °F (1986)
Min Temperature 32 °F 32 °F 12 °F (1987)
Degree Days  
Heating Degree Days 20    
Moisture  
Dew Point 17 °F    
Average Humidity 35    
Maximum Humidity 93    
Minimum Humidity 15    
Precipitation  
Precipitation 0.04 in - - ()
Sea Level Pressure  
Sea Level Pressure 30.02 in    
Wind  
Wind Speed 8 mph (WSW)    
Max Wind Speed 22 mph    
Max Gust Speed 32 mph    
Visibility 10 miles    
Events Snow    
Averages and records for this station are not official NWS values.
T = Trace of Precipitation, MM = Missing Value Source: NWS Daily Summary

Daily Weather History Graph

Daily Weather History Graph

Search for Another Location

Airport or City:

Trip Planner

Search our weather history database for the weather conditions in past years. The results will help you decide how hot, cold, wet, or windy it might be!

Date:

Astronomy

Mar. 28, 2014 Rise Set
Actual Time 6:50 AM MDT 7:21 PM MDT
Civil Twilight 6:23 AM MDT 7:48 PM MDT
Nautical Twilight 5:51 AM MDT 8:20 PM MDT
Astronomical Twilight 5:18 AM MDT 8:53 PM MDT
Moon 5:23 AM MDT (3/28) 5:20 PM MDT (3/28)
Length of Visible Light 13h 24m
Length of Day
12h 30m
Waning Crescent, 6% of the Moon is Illuminated
Mar 28
Waning Crescent
Mar 30
New
Apr 7
First Quarter
Apr 15
Full
Apr 22
Last Quarter

Hourly Weather History & Observations

Time (MDT) Temp. Windchill Dew Point Humidity Pressure Visibility Wind Dir Wind Speed Gust Speed Precip Events Conditions
12:15 AM 36.3 °F 32.5 °F 33.1 °F 88% 29.90 in 2.5 mi WNW 4.6 mph - 0.02 in Snow Light Snow
12:34 AM 37.0 °F 33.3 °F 34.7 °F 91% 29.91 in 7.0 mi NW 4.6 mph - 0.03 in   Overcast
12:55 AM 36.7 °F 30.5 °F 34.7 °F 93% 29.90 in 10.0 mi South 8.1 mph - 0.04 in   Overcast
1:15 AM 37.4 °F 30.8 °F 33.6 °F 86% 29.89 in 10.0 mi WSW 9.2 mph - N/A   Overcast
1:35 AM 40.1 °F 34.7 °F 25.5 °F 56% 29.88 in 10.0 mi West 8.1 mph - N/A   Scattered Clouds
1:55 AM 39.0 °F 33.4 °F 28.6 °F 66% 29.88 in 10.0 mi SSW 8.1 mph - N/A   Clear
2:15 AM 39.9 °F 32.9 °F 23.7 °F 52% 29.88 in 10.0 mi South 11.5 mph 16.1 mph N/A   Clear
2:35 AM 37.9 °F 34.4 °F 28.2 °F 68% 29.88 in 10.0 mi SSE 4.6 mph - N/A   Clear
2:55 AM 39.0 °F 33.4 °F 25.9 °F 59% 29.89 in 10.0 mi South 8.1 mph - N/A   Clear
3:15 AM 38.3 °F 33.2 °F 24.3 °F 57% 29.88 in 10.0 mi South 6.9 mph - N/A   Clear
3:35 AM 36.5 °F 31.0 °F 23.4 °F 59% 29.88 in 10.0 mi South 6.9 mph - N/A   Clear
3:55 AM 36.3 °F 30.8 °F 22.8 °F 58% 29.89 in 10.0 mi SSW 6.9 mph - N/A   Clear
4:15 AM 35.1 °F 30.1 °F 21.2 °F 57% 29.89 in 10.0 mi WSW 5.8 mph - N/A   Clear
4:35 AM 38.5 °F 33.4 °F 17.1 °F 42% 29.89 in 10.0 mi WSW 6.9 mph - N/A   Clear
4:55 AM 38.8 °F 36.5 °F 17.4 °F 42% 29.89 in 10.0 mi SW 3.5 mph - N/A   Clear
5:15 AM 36.3 °F - 19.4 °F 50% 29.91 in 10.0 mi Calm Calm - N/A   Clear
5:35 AM 35.8 °F - 19.2 °F 51% 29.91 in 10.0 mi Calm Calm - N/A   Clear
5:54 AM 35.1 °F 31.0 °F 17.4 °F 49% 29.92 in 10.0 mi SSW 4.6 mph - N/A   Clear
6:14 AM 37.0 °F 30.4 °F 13.6 °F 38% 29.92 in 10.0 mi WSW 9.2 mph - N/A   Clear
6:35 AM 37.4 °F 32.1 °F 15.6 °F 41% 29.93 in 10.0 mi WSW 6.9 mph - N/A   Clear
6:55 AM 37.9 °F 32.7 °F 13.3 °F 36% 29.93 in 10.0 mi WSW 6.9 mph - N/A   Clear
7:15 AM 39.6 °F - 13.3 °F 34% 29.95 in 10.0 mi Calm Calm - N/A   Clear
7:35 AM 36.3 °F 32.5 °F 19.6 °F 51% 29.96 in 10.0 mi East 4.6 mph - N/A   Clear
7:55 AM 39.9 °F 37.8 °F 14.5 °F 36% 29.97 in 10.0 mi ESE 3.5 mph - N/A   Clear
8:14 AM 42.6 °F 39.9 °F 14.7 °F 32% 29.97 in 10.0 mi ESE 4.6 mph - N/A   Clear
8:35 AM 45.5 °F 42.5 °F 15.3 °F 30% 29.98 in 10.0 mi South 5.8 mph - N/A   Clear
8:55 AM 48.0 °F - 14.7 °F 26% 29.98 in 10.0 mi Calm Calm - N/A   Clear
9:15 AM 49.1 °F - 14.5 °F 25% 29.99 in 10.0 mi WNW 9.2 mph - N/A   Clear
9:35 AM 49.5 °F - 18.1 °F 29% 30.00 in 10.0 mi West 6.9 mph 17.3 mph N/A   Clear
9:54 AM 50.7 °F - 18.0 °F 27% 30.00 in 10.0 mi WNW 10.4 mph 19.6 mph N/A   Clear
10:15 AM 50.7 °F - 15.4 °F 25% 30.00 in 10.0 mi WNW 12.7 mph 24.2 mph N/A   Clear
10:35 AM 51.8 °F - 14.0 °F 22% 30.02 in 10.0 mi West 15.0 mph 25.3 mph N/A   Clear
10:55 AM 53.4 °F - 16.9 °F 24% 30.02 in 10.0 mi West 9.2 mph - N/A   Clear
11:14 AM 52.7 °F - 15.1 °F 23% 30.03 in 10.0 mi WSW 11.5 mph 18.4 mph N/A   Scattered Clouds
11:35 AM 53.2 °F - 15.3 °F 22% 30.03 in 10.0 mi WSW 12.7 mph 20.7 mph N/A   Scattered Clouds
11:55 AM 53.1 °F - 16.0 °F 23% 30.04 in 10.0 mi West 11.5 mph 21.9 mph N/A   Clear
12:15 PM 54.0 °F - 16.0 °F 22% 30.04 in 10.0 mi West 11.5 mph 21.9 mph N/A   Clear
12:34 PM 54.0 °F - 17.6 °F 24% 30.04 in 10.0 mi West 17.3 mph 27.6 mph N/A   Scattered Clouds
12:55 PM 54.7 °F - 16.3 °F 22% 30.04 in 10.0 mi West 13.8 mph 26.5 mph N/A   Clear
1:15 PM 55.4 °F - 14.5 °F 20% 30.04 in 10.0 mi West 11.5 mph 20.7 mph N/A   Clear
1:34 PM 56.7 °F - 10.4 °F 16% 30.04 in 10.0 mi West 20.7 mph 28.8 mph N/A   Scattered Clouds
1:55 PM 54.3 °F - 14.0 °F 20% 30.04 in 10.0 mi SW 18.4 mph 32.2 mph N/A   Clear
2:15 PM 56.7 °F - 11.1 °F 16% 30.04 in 10.0 mi WSW 15.0 mph 25.3 mph N/A   Scattered Clouds
2:34 PM 55.8 °F - 9.7 °F 16% 30.05 in 10.0 mi West 10.4 mph 27.6 mph N/A   Clear
2:55 PM 56.8 °F - 10.0 °F 16% 30.05 in 10.0 mi WSW 10.4 mph 20.7 mph N/A   Scattered Clouds
3:15 PM 57.6 °F - 11.3 °F 16% 30.05 in 10.0 mi West 10.4 mph 18.4 mph N/A   Scattered Clouds
3:35 PM 55.0 °F - 8.2 °F 15% 30.05 in 10.0 mi SW 6.9 mph 16.1 mph N/A   Scattered Clouds
3:55 PM 57.0 °F - 10.6 °F 16% 30.05 in 10.0 mi East 4.6 mph - N/A   Mostly Cloudy
4:15 PM 54.5 °F - 10.4 °F 17% 30.06 in 10.0 mi North 5.8 mph - N/A   Overcast
4:35 PM 57.7 °F - 11.1 °F 16% 30.07 in 10.0 mi West 21.9 mph 26.5 mph N/A   Mostly Cloudy
4:55 PM 55.0 °F - 12.4 °F 18% 30.08 in 10.0 mi West 17.3 mph 27.6 mph N/A   Scattered Clouds
5:15 PM 54.9 °F - 11.8 °F 18% 30.09 in 10.0 mi WSW 11.5 mph 26.5 mph N/A   Scattered Clouds
5:35 PM 55.4 °F - 13.8 °F 19% 30.09 in 10.0 mi West 12.7 mph 21.9 mph N/A   Scattered Clouds
5:55 PM 55.2 °F - 11.8 °F 18% 30.10 in 10.0 mi WSW 12.7 mph 17.3 mph N/A   Mostly Cloudy
6:14 PM 54.5 °F - 11.5 °F 18% 30.10 in 10.0 mi West 9.2 mph - N/A   Scattered Clouds
6:35 PM 52.9 °F - 11.1 °F 19% 30.11 in 10.0 mi WSW 9.2 mph - N/A   Clear
6:55 PM 50.9 °F - 11.7 °F 21% 30.12 in 10.0 mi West 8.1 mph - N/A   Clear
7:14 PM 49.1 °F - 12.4 °F 23% 30.12 in 10.0 mi West 8.1 mph 17.3 mph N/A   Clear
7:34 PM 43.9 °F - 14.5 °F 31% 30.13 in 10.0 mi Calm Calm - N/A   Clear
7:55 PM 46.2 °F - 13.1 °F 26% 30.14 in 10.0 mi Calm Calm - N/A   Clear
8:15 PM 46.2 °F 41.7 °F 13.8 °F 27% 30.14 in 10.0 mi SW 9.2 mph - N/A   Clear
8:35 PM 46.8 °F - 13.1 °F 26% 30.14 in 10.0 mi SW 10.4 mph - N/A   Clear
8:55 PM 44.8 °F 39.4 °F 13.3 °F 28% 30.15 in 10.0 mi SW 10.4 mph - N/A   Clear
9:14 PM 45.7 °F 39.8 °F 14.0 °F 28% 30.15 in 10.0 mi SSW 12.7 mph 18.4 mph N/A   Clear
9:34 PM 45.7 °F 41.0 °F 12.9 °F 27% 30.15 in 10.0 mi South 9.2 mph - N/A   Clear
9:55 PM 42.8 °F 38.6 °F 13.8 °F 31% 30.16 in 10.0 mi South 6.9 mph - N/A   Clear
10:15 PM 42.8 °F 38.0 °F 14.2 °F 31% 30.17 in 10.0 mi SSW 8.1 mph - N/A   Clear
10:35 PM 43.7 °F 40.3 °F 13.8 °F 30% 30.17 in 10.0 mi SSW 5.8 mph - N/A   Clear
10:55 PM 40.3 °F - 14.7 °F 35% 30.17 in 10.0 mi Calm Calm - N/A   Clear
11:15 PM 37.9 °F 33.5 °F 19.6 °F 48% 30.17 in 10.0 mi WNW 5.8 mph - N/A   Clear
11:34 PM 34.7 °F 31.8 °F 20.7 °F 57% 30.17 in 10.0 mi North 3.5 mph - N/A   Clear
11:55 PM 32.7 °F 28.3 °F 18.3 °F 55% 30.17 in 10.0 mi WNW 4.6 mph - N/A   Clear